Regional Weather Roundup
Issued by NWS

Home | Current Version | Previous Version | Graphics & Text | Print | Product List | Glossary On
Versions: 1 2 3 4 5 6 7 8 9 10 11 12 13 14 15 16 17 18 19 20 21 22 23 24 25 26 27 28 29 30 31 32 33 34 35 36 37
000
ASUS43 KDMX 221007
RWRIA

WEATHER ROUNDUP FOR IOWA
NATIONAL WEATHER SERVICE DES MOINES IA
500 AM CDT WED OCT 22 2014

NOTE: "FAIR" INDICATES FEW OR NO CLOUDS BELOW 12,000 FEET WITH NO
SIGNIFICANT WEATHER AND/OR OBSTRUCTIONS TO VISIBILITY.

* - THESE STATIONS ARE NOT NWS STATIONS...THUS NOT UNDER NWS
QUALITY CONTROL.  THEY ALSO DO NOT REPORT WEATHER SUCH
AS PRECIPITATION OR FOG.

IAZ001>003-012>014-020>022-031>034-043>046-221100-
   NORTHWEST IOWA

CITY           SKY/WX    TMP DP  RH WIND       PRES   REMARKS
CARROLL *      CLOUDY    46  41  81 SE8       30.15S
CHEROKEE *     CLOUDY    50  43  76 S12G21    30.10S
DENISON *      CLOUDY    52  43  71 VRB7      30.11R
LE MARS *      CLEAR     54  45  71 SE15G23   30.05S
ORANGE CITY *  CLEAR     54  45  71 SE7       30.05F
SHELDON *      CLOUDY    52  43  71 SE20      30.06S
SIOUX CITY     CLEAR     54  45  71 SE10      30.06S
SPENCER        MOCLDY    49  40  71 SE15G22   30.11S
STORM LAKE *   CLOUDY    46  41  81 SE17      30.12S
$$

IAZ055>058-069>071-079>083-090>094-221100-
   SOUTHWEST IOWA

CITY           SKY/WX    TMP DP  RH WIND       PRES   REMARKS
ATLANTIC *     CLOUDY    54  43  66 S9G15     30.14S
AUDUBON *      PTCLDY    50  41  71 SE8       30.16R
CLARINDA *     CLOUDY    54  45  71 SE8G15    30.16R
COUNCIL BLFS * CLOUDY    54  46  76 SE12      30.10R
CRESTON *      MOCLDY    46  41  81 SE9       30.18R
HARLAN  *      CLOUDY    54  45  71 SE13      30.16R
LAMONI         PTCLDY    47  40  76 SE7       30.19R
RED OAK *      CLOUDY    54  45  71 SE7       30.14R
SHENANDOAH *   CLOUDY    55  45  67 SE10G16   30.13R
$$

IAZ047>049-059>061-072>074-084-221100-
   CENTRAL IOWA

CITY           SKY/WX    TMP DP  RH WIND       PRES   REMARKS
AMES           CLEAR     41  37  86 SE7       30.21R
ANKENY *       CLEAR     43  39  87 SE8       30.21S
CHARITON *     MOCLDY    45  39  81 SE12G17   30.21R
DES MOINES     CLEAR     45  38  76 SE8       30.21R
GRINNELL*      CLEAR     39  37  93 E7        30.25R WCI  34
KNOXVILLE *    CLEAR     43  37  81 SE9       30.21S
MARSHALLTOWN   CLEAR     41  38  89 SE14      30.23R
PELLA *        CLEAR     41  37  87 SE10      30.24S
PERRY *          N/A     45  41  87 SE8       30.19R
$$

IAZ004>006-015-016-023>025-035-036-221100-
   NORTH CENTRAL IOWA

CITY           SKY/WX    TMP DP  RH WIND       PRES   REMARKS
ALGONA *       CLEAR     43  39  87 SE15G22   30.16S
CLARION *      CLEAR     41  39  93 SE14      30.20R
ESTHERVILLE    CLEAR     43  38  82 S17       30.13R
FORT DODGE *   CLEAR     45  36  70 SE10      30.18S
MASON CITY     CLEAR     39  36  89 SE14      30.23R WCI  31
FOREST CITY *  CLEAR     41  37  87 SE12G18   30.19S
IOWA FALLS *     N/A     39  37  93 SE8       30.23R WCI  34
$$

IAZ007>011-017>019-026>030-037>042-050>054-066-221100-
   NORTHEAST IOWA

CITY           SKY/WX    TMP DP  RH WIND       PRES   REMARKS
CEDAR RAPIDS   CLEAR     35  34  96 E6        30.27R WCI  30
CHARLES CITY * CLEAR     39  36  87 SE9       30.25R WCI  33
CLINTON *      CLEAR     32  28  86 E8        30.33R WCI  25
DECORAH *      CLEAR     37  36  93 SE8       30.26S WCI  31
DUBUQUE        CLEAR     37  35  92 E7        30.29S WCI  32
MONTICELLO *   CLEAR     39  36  87 SE7       30.28S WCI  34
OELWEIN *      CLEAR     37  36  93 SE10      30.27R WCI  30
WATERLOO       CLEAR     38  36  92 SE7       30.25R WCI  33
$$

IAZ064-065-067-068-078-221100-
   EAST CENTRAL IOWA

CITY           SKY/WX    TMP DP  RH WIND       PRES   REMARKS
DAVENPORT      CLEAR     35  31  85 E8        30.30R WCI  29
IOWA CITY      CLEAR     37  35  92 CALM      30.30R
MT. PLEASANT * CLEAR     36  36 100 E3        30.28R
MUSCATINE *    CLEAR     36  34  93 CALM      30.30R
QUAD CITIES    CLEAR     32  31  96 E6        30.30R WCI  26
$$

IAZ062-063-075>077-085>089-095>099-221100-
   SOUTHEAST IOWA

CITY           SKY/WX    TMP DP  RH WIND       PRES   REMARKS
BURLINGTON     CLEAR     41  38  89 E5        30.27R
FAIRFIELD *      N/A     37  34  87 E7        30.26S WCI  32
FORT MADISON * CLEAR     43  39  87 SE3       30.28R
KEOKUK *       CLEAR     41  37  87 E7        30.27R
OSKALOOSA *      N/A     39  37  93 SE8       30.25R WCI  34
CENTERVILLE *  CLEAR     41  39  93 SE6       30.24R
WASHINGTON *   CLEAR     36  36 100 E7        30.28R WCI  30
$$

ABBREVIATIONS USED IN REMARKS
   TC - TEMPERATURES IN CELSIUS
  WCI - WIND CHILL INDEX
   HX - HEAT INDEX
  VSB - VISIBILITY
$$




USA.gov is the U.S. government's official web portal to all federal, state and local government web resources and services.